owner,sensor,date,latitude,longitude,relative_humidity,qcFlag 
COMPS,ioos:station:USF.COMPS:C13:1,2016-07-01T00:05:00Z,26.0630,-83.0730,67.15,1111122 
COMPS,ioos:station:USF.COMPS:C13:1,2016-07-01T00:35:00Z,26.0630,-83.0730,67.98,1111122 
COMPS,ioos:station:USF.COMPS:C13:1,2016-07-01T01:05:00Z,26.0630,-83.0730,68.05,1111122 
COMPS,ioos:station:USF.COMPS:C13:1,2016-07-01T01:35:00Z,26.0630,-83.0730,67.5,1111122 
COMPS,ioos:station:USF.COMPS:C13:1,2016-07-01T02:05:00Z,26.0630,-83.0730,68.32,1111122 
COMPS,ioos:station:USF.COMPS:C13:1,2016-07-01T02:35:00Z,26.0630,-83.0730,68.29,1111122 
COMPS,ioos:station:USF.COMPS:C13:1,2016-07-01T03:05:00Z,26.0630,-83.0730,68.44,1111122 
COMPS,ioos:station:USF.COMPS:C13:1,2016-07-01T03:35:00Z,26.0630,-83.0730,68.07,1111122 
COMPS,ioos:station:USF.COMPS:C13:1,2016-07-01T04:05:00Z,26.0630,-83.0730,68.79,1111122 
COMPS,ioos:station:USF.COMPS:C13:1,2016-07-01T04:35:00Z,26.0630,-83.0730,68.87,1111122 
COMPS,ioos:station:USF.COMPS:C13:1,2016-07-01T05:05:00Z,26.0630,-83.0730,69.55,1111122 
COMPS,ioos:station:USF.COMPS:C13:1,2016-07-01T05:35:00Z,26.0630,-83.0730,70.54,1111122 
COMPS,ioos:station:USF.COMPS:C13:1,2016-07-01T06:05:00Z,26.0630,-83.0730,71.23,1111122 
COMPS,ioos:station:USF.COMPS:C13:1,2016-07-01T06:35:00Z,26.0630,-83.0730,70.87,1111122 
COMPS,ioos:station:USF.COMPS:C13:1,2016-07-01T07:05:00Z,26.0630,-83.0730,71.03,1111122 
COMPS,ioos:station:USF.COMPS:C13:1,2016-07-01T07:35:00Z,26.0630,-83.0730,71.77,1111122 
COMPS,ioos:station:USF.COMPS:C13:1,2016-07-01T08:05:00Z,26.0630,-83.0730,72.53,1111122 
COMPS,ioos:station:USF.COMPS:C13:1,2016-07-01T08:35:00Z,26.0630,-83.0730,71.29,1111122 
COMPS,ioos:station:USF.COMPS:C13:1,2016-07-01T09:05:00Z,26.0630,-83.0730,71.83,1111122 
COMPS,ioos:station:USF.COMPS:C13:1,2016-07-01T09:35:00Z,26.0630,-83.0730,70.82,1111122 
COMPS,ioos:station:USF.COMPS:C13:1,2016-07-01T10:05:00Z,26.0630,-83.0730,70.66,1111122 
COMPS,ioos:station:USF.COMPS:C13:1,2016-07-01T10:35:00Z,26.0630,-83.0730,70.65,1111122 
COMPS,ioos:station:USF.COMPS:C13:1,2016-07-01T11:05:00Z,26.0630,-83.0730,70.29,1111122 
COMPS,ioos:station:USF.COMPS:C13:1,2016-07-01T11:35:00Z,26.0630,-83.0730,69.0,1111122 
COMPS,ioos:station:USF.COMPS:C13:1,2016-07-01T12:05:00Z,26.0630,-83.0730,64.71,1111122 
COMPS,ioos:station:USF.COMPS:C13:1,2016-07-01T12:35:00Z,26.0630,-83.0730,65.54,1111122 
COMPS,ioos:station:USF.COMPS:C13:1,2016-07-01T13:05:00Z,26.0630,-83.0730,67.11,1111122 
COMPS,ioos:station:USF.COMPS:C13:1,2016-07-01T13:35:00Z,26.0630,-83.0730,68.17,1111122 
COMPS,ioos:station:USF.COMPS:C13:1,2016-07-01T14:05:00Z,26.0630,-83.0730,66.38,1111122 
COMPS,ioos:station:USF.COMPS:C13:1,2016-07-01T14:35:00Z,26.0630,-83.0730,66.81,1111122 
COMPS,ioos:station:USF.COMPS:C13:1,2016-07-01T15:05:00Z,26.0630,-83.0730,67.09,1111122 
COMPS,ioos:station:USF.COMPS:C13:1,2016-07-01T15:35:00Z,26.0630,-83.0730,69.71,1111122 
COMPS,ioos:station:USF.COMPS:C13:1,2016-07-01T16:05:00Z,26.0630,-83.0730,69.15,1111122 
COMPS,ioos:station:USF.COMPS:C13:1,2016-07-01T16:35:00Z,26.0630,-83.0730,69.66,1111122 
COMPS,ioos:station:USF.COMPS:C13:1,2016-07-01T17:05:00Z,26.0630,-83.0730,66.65,1111122 
COMPS,ioos:station:USF.COMPS:C13:1,2016-07-01T17:35:00Z,26.0630,-83.0730,66.77,1111122 
COMPS,ioos:station:USF.COMPS:C13:1,2016-07-01T18:05:00Z,26.0630,-83.0730,67.06,1111122 
COMPS,ioos:station:USF.COMPS:C13:1,2016-07-01T18:35:00Z,26.0630,-83.0730,68.33,1111122 
COMPS,ioos:station:USF.COMPS:C13:1,2016-07-01T19:05:00Z,26.0630,-83.0730,68.93,1111122 
COMPS,ioos:station:USF.COMPS:C13:1,2016-07-01T19:35:00Z,26.0630,-83.0730,69.0,1111122 
COMPS,ioos:station:USF.COMPS:C13:1,2016-07-01T20:05:00Z,26.0630,-83.0730,64.88,1111122 
COMPS,ioos:station:USF.COMPS:C13:1,2016-07-01T20:35:00Z,26.0630,-83.0730,62.61,1111122 
COMPS,ioos:station:USF.COMPS:C13:1,2016-07-01T21:05:00Z,26.0630,-83.0730,62.14,1111122 
COMPS,ioos:station:USF.COMPS:C13:1,2016-07-01T21:35:00Z,26.0630,-83.0730,60.66,1111122 
COMPS,ioos:station:USF.COMPS:C13:1,2016-07-01T22:05:00Z,26.0630,-83.0730,61.19,1111122 
COMPS,ioos:station:USF.COMPS:C13:1,2016-07-01T22:35:00Z,26.0630,-83.0730,58.62,1111122 
COMPS,ioos:station:USF.COMPS:C13:1,2016-07-01T23:05:00Z,26.0630,-83.0730,63.64,1111122 
COMPS,ioos:station:USF.COMPS:C13:1,2016-07-01T23:35:00Z,26.0630,-83.0730,63.2,1111122 
COMPS,ioos:station:USF.COMPS:C13:1,2016-07-02T00:05:00Z,26.0630,-83.0730,63.82,1111122 
COMPS,ioos:station:USF.COMPS:C13:1,2016-07-02T00:35:00Z,26.0630,-83.0730,66.63,1111122 
COMPS,ioos:station:USF.COMPS:C13:1,2016-07-02T01:05:00Z,26.0630,-83.0730,67.17,1111122 
COMPS,ioos:station:USF.COMPS:C13:1,2016-07-02T01:35:00Z,26.0630,-83.0730,67.09,1111122 
COMPS,ioos:station:USF.COMPS:C13:1,2016-07-02T02:05:00Z,26.0630,-83.0730,67.02,1111122 
COMPS,ioos:station:USF.COMPS:C13:1,2016-07-02T02:35:00Z,26.0630,-83.0730,68.27,1111122 
COMPS,ioos:station:USF.COMPS:C13:1,2016-07-02T03:05:00Z,26.0630,-83.0730,69.58,1111122 
COMPS,ioos:station:USF.COMPS:C13:1,2016-07-02T03:35:00Z,26.0630,-83.0730,68.56,1111122 
COMPS,ioos:station:USF.COMPS:C13:1,2016-07-02T04:05:00Z,26.0630,-83.0730,67.19,1111122 
COMPS,ioos:station:USF.COMPS:C13:1,2016-07-02T04:35:00Z,26.0630,-83.0730,68.43,1111122 
COMPS,ioos:station:USF.COMPS:C13:1,2016-07-02T05:05:00Z,26.0630,-83.0730,68.3,1111122 
COMPS,ioos:station:USF.COMPS:C13:1,2016-07-02T05:35:00Z,26.0630,-83.0730,68.35,1111122 
COMPS,ioos:station:USF.COMPS:C13:1,2016-07-02T06:05:00Z,26.0630,-83.0730,67.19,1111122 
COMPS,ioos:station:USF.COMPS:C13:1,2016-07-02T06:35:00Z,26.0630,-83.0730,67.57,1111122 
COMPS,ioos:station:USF.COMPS:C13:1,2016-07-02T07:05:00Z,26.0630,-83.0730,70.13,1111122 
COMPS,ioos:station:USF.COMPS:C13:1,2016-07-02T07:35:00Z,26.0630,-83.0730,70.89,1111122 
COMPS,ioos:station:USF.COMPS:C13:1,2016-07-02T08:05:00Z,26.0630,-83.0730,69.68,1111122 
COMPS,ioos:station:USF.COMPS:C13:1,2016-07-02T08:35:00Z,26.0630,-83.0730,69.25,1111122 
COMPS,ioos:station:USF.COMPS:C13:1,2016-07-02T09:05:00Z,26.0630,-83.0730,69.04,1111122 
COMPS,ioos:station:USF.COMPS:C13:1,2016-07-02T09:35:00Z,26.0630,-83.0730,69.93,1111122 
COMPS,ioos:station:USF.COMPS:C13:1,2016-07-02T10:05:00Z,26.0630,-83.0730,70.68,1111122 
COMPS,ioos:station:USF.COMPS:C13:1,2016-07-02T10:35:00Z,26.0630,-83.0730,70.95,1111122 
COMPS,ioos:station:USF.COMPS:C13:1,2016-07-02T11:05:00Z,26.0630,-83.0730,70.91,1111122 
COMPS,ioos:station:USF.COMPS:C13:1,2016-07-02T11:35:00Z,26.0630,-83.0730,66.33,1111122 
COMPS,ioos:station:USF.COMPS:C13:1,2016-07-02T12:05:00Z,26.0630,-83.0730,63.02,1111122 
COMPS,ioos:station:USF.COMPS:C13:1,2016-07-02T12:35:00Z,26.0630,-83.0730,60.09,1111122 
COMPS,ioos:station:USF.COMPS:C13:1,2016-07-02T13:05:00Z,26.0630,-83.0730,69.75,1111122 
COMPS,ioos:station:USF.COMPS:C13:1,2016-07-02T13:35:00Z,26.0630,-83.0730,70.24,1111122 
COMPS,ioos:station:USF.COMPS:C13:1,2016-07-02T14:05:00Z,26.0630,-83.0730,68.04,1111122 
COMPS,ioos:station:USF.COMPS:C13:1,2016-07-02T14:35:00Z,26.0630,-83.0730,68.75,1111122 
COMPS,ioos:station:USF.COMPS:C13:1,2016-07-02T15:05:00Z,26.0630,-83.0730,66.09,1111122 
COMPS,ioos:station:USF.COMPS:C13:1,2016-07-02T15:35:00Z,26.0630,-83.0730,68.76,1111122 
COMPS,ioos:station:USF.COMPS:C13:1,2016-07-02T16:05:00Z,26.0630,-83.0730,65.33,1111122 
COMPS,ioos:station:USF.COMPS:C13:1,2016-07-02T16:35:00Z,26.0630,-83.0730,63.84,1111122 
COMPS,ioos:station:USF.COMPS:C13:1,2016-07-02T17:05:00Z,26.0630,-83.0730,63.74,1111122 
COMPS,ioos:station:USF.COMPS:C13:1,2016-07-02T17:35:00Z,26.0630,-83.0730,65.89,1111122 
COMPS,ioos:station:USF.COMPS:C13:1,2016-07-02T18:05:00Z,26.0630,-83.0730,67.08,1111122 
COMPS,ioos:station:USF.COMPS:C13:1,2016-07-02T18:35:00Z,26.0630,-83.0730,67.38,1111122 
COMPS,ioos:station:USF.COMPS:C13:1,2016-07-02T19:05:00Z,26.0630,-83.0730,66.41,1111122 
COMPS,ioos:station:USF.COMPS:C13:1,2016-07-02T19:35:00Z,26.0630,-83.0730,69.16,1111122 
COMPS,ioos:station:USF.COMPS:C13:1,2016-07-02T20:05:00Z,26.0630,-83.0730,68.17,1111122 
COMPS,ioos:station:USF.COMPS:C13:1,2016-07-02T20:35:00Z,26.0630,-83.0730,69.62,1111122 
COMPS,ioos:station:USF.COMPS:C13:1,2016-07-02T21:05:00Z,26.0630,-83.0730,67.6,1111122 
COMPS,ioos:station:USF.COMPS:C13:1,2016-07-02T21:35:00Z,26.0630,-83.0730,66.38,1111122 
COMPS,ioos:station:USF.COMPS:C13:1,2016-07-02T22:05:00Z,26.0630,-83.0730,69.42,1111122 
COMPS,ioos:station:USF.COMPS:C13:1,2016-07-02T22:35:00Z,26.0630,-83.0730,68.11,1111122 
COMPS,ioos:station:USF.COMPS:C13:1,2016-07-02T23:05:00Z,26.0630,-83.0730,67.72,1111122 
COMPS,ioos:station:USF.COMPS:C13:1,2016-07-02T23:35:00Z,26.0630,-83.0730,67.11,1111122 
COMPS,ioos:station:USF.COMPS:C13:1,2016-07-03T00:05:00Z,26.0630,-83.0730,63.15,1111122 
COMPS,ioos:station:USF.COMPS:C13:1,2016-07-03T00:35:00Z,26.0630,-83.0730,62.37,1111122 
COMPS,ioos:station:USF.COMPS:C13:1,2016-07-03T01:05:00Z,26.0630,-83.0730,62.84,1111122 
COMPS,ioos:station:USF.COMPS:C13:1,2016-07-03T01:35:00Z,26.0630,-83.0730,61.63,1111122 
COMPS,ioos:station:USF.COMPS:C13:1,2016-07-03T02:05:00Z,26.0630,-83.0730,65.48,1111122 
COMPS,ioos:station:USF.COMPS:C13:1,2016-07-03T02:35:00Z,26.0630,-83.0730,68.73,1111122 
COMPS,ioos:station:USF.COMPS:C13:1,2016-07-03T03:05:00Z,26.0630,-83.0730,69.74,1111122 
COMPS,ioos:station:USF.COMPS:C13:1,2016-07-03T03:35:00Z,26.0630,-83.0730,70.39,1111122 
COMPS,ioos:station:USF.COMPS:C13:1,2016-07-03T04:05:00Z,26.0630,-83.0730,71.6,1111122 
COMPS,ioos:station:USF.COMPS:C13:1,2016-07-03T04:35:00Z,26.0630,-83.0730,70.89,1111122 
COMPS,ioos:station:USF.COMPS:C13:1,2016-07-03T05:05:00Z,26.0630,-83.0730,71.25,1111122 
COMPS,ioos:station:USF.COMPS:C13:1,2016-07-03T05:35:00Z,26.0630,-83.0730,71.78,1111122 
COMPS,ioos:station:USF.COMPS:C13:1,2016-07-03T06:05:00Z,26.0630,-83.0730,72.75,1111122 
COMPS,ioos:station:USF.COMPS:C13:1,2016-07-03T06:35:00Z,26.0630,-83.0730,72.99,1111122 
COMPS,ioos:station:USF.COMPS:C13:1,2016-07-03T07:05:00Z,26.0630,-83.0730,73.28,1111122 
COMPS,ioos:station:USF.COMPS:C13:1,2016-07-03T07:35:00Z,26.0630,-83.0730,72.65,1111122 
COMPS,ioos:station:USF.COMPS:C13:1,2016-07-03T08:05:00Z,26.0630,-83.0730,73.61,1111122 
COMPS,ioos:station:USF.COMPS:C13:1,2016-07-03T08:35:00Z,26.0630,-83.0730,74.3,1111122 
COMPS,ioos:station:USF.COMPS:C13:1,2016-07-03T09:05:00Z,26.0630,-83.0730,78.43,1111122 
COMPS,ioos:station:USF.COMPS:C13:1,2016-07-03T09:35:00Z,26.0630,-83.0730,77.5,1111122 
COMPS,ioos:station:USF.COMPS:C13:1,2016-07-03T10:05:00Z,26.0630,-83.0730,76.95,1111122 
COMPS,ioos:station:USF.COMPS:C13:1,2016-07-03T10:35:00Z,26.0630,-83.0730,78.41,1111122 
COMPS,ioos:station:USF.COMPS:C13:1,2016-07-03T11:05:00Z,26.0630,-83.0730,78.75,1111122 
COMPS,ioos:station:USF.COMPS:C13:1,2016-07-03T11:35:00Z,26.0630,-83.0730,78.79,1111122 
COMPS,ioos:station:USF.COMPS:C13:1,2016-07-03T12:05:00Z,26.0630,-83.0730,73.51,1111122 
COMPS,ioos:station:USF.COMPS:C13:1,2016-07-03T12:35:00Z,26.0630,-83.0730,73.41,1111122 
COMPS,ioos:station:USF.COMPS:C13:1,2016-07-03T13:05:00Z,26.0630,-83.0730,75.03,1111122 
COMPS,ioos:station:USF.COMPS:C13:1,2016-07-03T13:35:00Z,26.0630,-83.0730,76.7,1111122 
COMPS,ioos:station:USF.COMPS:C13:1,2016-07-03T15:05:00Z,26.0630,-83.0730,75.81,1111122 
COMPS,ioos:station:USF.COMPS:C13:1,2016-07-03T15:35:00Z,26.0630,-83.0730,77.31,1111122 
COMPS,ioos:station:USF.COMPS:C13:1,2016-07-03T17:05:00Z,26.0630,-83.0730,81.0,1111122 
COMPS,ioos:station:USF.COMPS:C13:1,2016-07-03T17:35:00Z,26.0630,-83.0730,81.28,1111122 
COMPS,ioos:station:USF.COMPS:C13:1,2016-07-03T18:05:00Z,26.0630,-83.0730,76.74,1111122 
COMPS,ioos:station:USF.COMPS:C13:1,2016-07-03T18:35:00Z,26.0630,-83.0730,79.39,1111122 
COMPS,ioos:station:USF.COMPS:C13:1,2016-07-03T19:05:00Z,26.0630,-83.0730,75.81,1111122 
COMPS,ioos:station:USF.COMPS:C13:1,2016-07-03T19:35:00Z,26.0630,-83.0730,74.85,1111122 
COMPS,ioos:station:USF.COMPS:C13:1,2016-07-03T21:05:00Z,26.0630,-83.0730,75.02,1111122 
COMPS,ioos:station:USF.COMPS:C13:1,2016-07-03T21:35:00Z,26.0630,-83.0730,76.79,1111122 
COMPS,ioos:station:USF.COMPS:C13:1,2016-07-03T22:05:00Z,26.0630,-83.0730,76.25,1111122 
COMPS,ioos:station:USF.COMPS:C13:1,2016-07-03T22:35:00Z,26.0630,-83.0730,75.6,1111122 
COMPS,ioos:station:USF.COMPS:C13:1,2016-07-03T23:05:00Z,26.0630,-83.0730,74.66,1111122 
COMPS,ioos:station:USF.COMPS:C13:1,2016-07-03T23:35:00Z,26.0630,-83.0730,70.25,1111122 
COMPS,ioos:station:USF.COMPS:C13:1,2016-07-04T00:05:00Z,26.0630,-83.0730,70.37,1111122 
COMPS,ioos:station:USF.COMPS:C13:1,2016-07-04T00:35:00Z,26.0630,-83.0730,71.08,1111122 
COMPS,ioos:station:USF.COMPS:C13:1,2016-07-04T01:05:00Z,26.0630,-83.0730,73.52,1111122 
COMPS,ioos:station:USF.COMPS:C13:1,2016-07-04T01:35:00Z,26.0630,-83.0730,76.14,1111122 
COMPS,ioos:station:USF.COMPS:C13:1,2016-07-04T02:05:00Z,26.0630,-83.0730,76.54,1111122 
COMPS,ioos:station:USF.COMPS:C13:1,2016-07-04T02:35:00Z,26.0630,-83.0730,75.7,1111122 
COMPS,ioos:station:USF.COMPS:C13:1,2016-07-04T03:05:00Z,26.0630,-83.0730,73.05,1111122 
COMPS,ioos:station:USF.COMPS:C13:1,2016-07-04T03:35:00Z,26.0630,-83.0730,72.82,1111122 
COMPS,ioos:station:USF.COMPS:C13:1,2016-07-04T04:05:00Z,26.0630,-83.0730,74.72,1111122 
COMPS,ioos:station:USF.COMPS:C13:1,2016-07-04T04:35:00Z,26.0630,-83.0730,73.15,1111122 
COMPS,ioos:station:USF.COMPS:C13:1,2016-07-04T05:05:00Z,26.0630,-83.0730,74.62,1111122 
COMPS,ioos:station:USF.COMPS:C13:1,2016-07-04T05:35:00Z,26.0630,-83.0730,75.46,1111122 
COMPS,ioos:station:USF.COMPS:C13:1,2016-07-04T06:05:00Z,26.0630,-83.0730,75.63,1111122 
COMPS,ioos:station:USF.COMPS:C13:1,2016-07-04T06:35:00Z,26.0630,-83.0730,76.09,1111122 
COMPS,ioos:station:USF.COMPS:C13:1,2016-07-04T07:05:00Z,26.0630,-83.0730,77.47,1111122 
COMPS,ioos:station:USF.COMPS:C13:1,2016-07-04T07:35:00Z,26.0630,-83.0730,77.61,1111122 
COMPS,ioos:station:USF.COMPS:C13:1,2016-07-04T08:05:00Z,26.0630,-83.0730,78.23,1111122 
COMPS,ioos:station:USF.COMPS:C13:1,2016-07-04T08:35:00Z,26.0630,-83.0730,79.79,1111122 
COMPS,ioos:station:USF.COMPS:C13:1,2016-07-04T09:05:00Z,26.0630,-83.0730,79.37,1111122 
COMPS,ioos:station:USF.COMPS:C13:1,2016-07-04T09:35:00Z,26.0630,-83.0730,77.61,1111122 
COMPS,ioos:station:USF.COMPS:C13:1,2016-07-04T10:05:00Z,26.0630,-83.0730,76.96,1111122 
COMPS,ioos:station:USF.COMPS:C13:1,2016-07-04T10:35:00Z,26.0630,-83.0730,77.13,1111122 
COMPS,ioos:station:USF.COMPS:C13:1,2016-07-04T11:05:00Z,26.0630,-83.0730,76.51,1111122 
COMPS,ioos:station:USF.COMPS:C13:1,2016-07-04T11:35:00Z,26.0630,-83.0730,77.03,1111122 
COMPS,ioos:station:USF.COMPS:C13:1,2016-07-04T12:05:00Z,26.0630,-83.0730,76.63,1111122 
COMPS,ioos:station:USF.COMPS:C13:1,2016-07-04T12:35:00Z,26.0630,-83.0730,76.02,1111122 
COMPS,ioos:station:USF.COMPS:C13:1,2016-07-04T13:05:00Z,26.0630,-83.0730,75.78,1111122 
COMPS,ioos:station:USF.COMPS:C13:1,2016-07-04T13:35:00Z,26.0630,-83.0730,76.73,1111122 
COMPS,ioos:station:USF.COMPS:C13:1,2016-07-04T14:05:00Z,26.0630,-83.0730,77.34,1111122 
COMPS,ioos:station:USF.COMPS:C13:1,2016-07-04T14:35:00Z,26.0630,-83.0730,77.31,1111122 
COMPS,ioos:station:USF.COMPS:C13:1,2016-07-04T15:05:00Z,26.0630,-83.0730,77.12,1111122 
COMPS,ioos:station:USF.COMPS:C13:1,2016-07-04T15:35:00Z,26.0630,-83.0730,77.05,1111122 
COMPS,ioos:station:USF.COMPS:C13:1,2016-07-04T16:05:00Z,26.0630,-83.0730,77.58,1111122 
COMPS,ioos:station:USF.COMPS:C13:1,2016-07-04T16:35:00Z,26.0630,-83.0730,76.57,1111122 
COMPS,ioos:station:USF.COMPS:C13:1,2016-07-04T17:05:00Z,26.0630,-83.0730,76.02,1111122 
COMPS,ioos:station:USF.COMPS:C13:1,2016-07-04T17:35:00Z,26.0630,-83.0730,73.99,1111122 
COMPS,ioos:station:USF.COMPS:C13:1,2016-07-04T18:05:00Z,26.0630,-83.0730,73.53,1111122 
COMPS,ioos:station:USF.COMPS:C13:1,2016-07-04T18:35:00Z,26.0630,-83.0730,72.59,1111122 
COMPS,ioos:station:USF.COMPS:C13:1,2016-07-04T20:05:00Z,26.0630,-83.0730,69.78,1111122 
COMPS,ioos:station:USF.COMPS:C13:1,2016-07-04T20:35:00Z,26.0630,-83.0730,69.48,1111122 
COMPS,ioos:station:USF.COMPS:C13:1,2016-07-04T21:05:00Z,26.0630,-83.0730,69.0,1111122 
COMPS,ioos:station:USF.COMPS:C13:1,2016-07-04T21:35:00Z,26.0630,-83.0730,72.23,1111122 
COMPS,ioos:station:USF.COMPS:C13:1,2016-07-04T22:05:00Z,26.0630,-83.0730,73.16,1111122 
COMPS,ioos:station:USF.COMPS:C13:1,2016-07-04T22:35:00Z,26.0630,-83.0730,71.83,1111122 
COMPS,ioos:station:USF.COMPS:C13:1,2016-07-04T23:05:00Z,26.0630,-83.0730,66.69,1111122 
COMPS,ioos:station:USF.COMPS:C13:1,2016-07-04T23:35:00Z,26.0630,-83.0730,71.32,1111122 
COMPS,ioos:station:USF.COMPS:C13:1,2016-07-05T00:05:00Z,26.0630,-83.0730,75.23,1111122 
COMPS,ioos:station:USF.COMPS:C13:1,2016-07-05T00:35:00Z,26.0630,-83.0730,75.15,1111122 
COMPS,ioos:station:USF.COMPS:C13:1,2016-07-05T01:05:00Z,26.0630,-83.0730,76.11,1111122 
COMPS,ioos:station:USF.COMPS:C13:1,2016-07-05T01:35:00Z,26.0630,-83.0730,76.27,1111122 
COMPS,ioos:station:USF.COMPS:C13:1,2016-07-05T02:05:00Z,26.0630,-83.0730,75.94,1111122 
COMPS,ioos:station:USF.COMPS:C13:1,2016-07-05T02:35:00Z,26.0630,-83.0730,77.52,1111122 
COMPS,ioos:station:USF.COMPS:C13:1,2016-07-05T03:05:00Z,26.0630,-83.0730,76.79,1111122 
COMPS,ioos:station:USF.COMPS:C13:1,2016-07-05T03:35:00Z,26.0630,-83.0730,77.5,1111122 
COMPS,ioos:station:USF.COMPS:C13:1,2016-07-05T04:05:00Z,26.0630,-83.0730,79.44,1111122 
COMPS,ioos:station:USF.COMPS:C13:1,2016-07-05T04:35:00Z,26.0630,-83.0730,80.1,1111122 
COMPS,ioos:station:USF.COMPS:C13:1,2016-07-05T05:05:00Z,26.0630,-83.0730,77.17,1111122 
COMPS,ioos:station:USF.COMPS:C13:1,2016-07-05T05:35:00Z,26.0630,-83.0730,79.16,1111122 
COMPS,ioos:station:USF.COMPS:C13:1,2016-07-05T07:05:00Z,26.0630,-83.0730,72.6,1111122 
COMPS,ioos:station:USF.COMPS:C13:1,2016-07-05T07:35:00Z,26.0630,-83.0730,72.83,1111122 
COMPS,ioos:station:USF.COMPS:C13:1,2016-07-05T10:05:00Z,26.0630,-83.0730,67.93,1111122 
COMPS,ioos:station:USF.COMPS:C13:1,2016-07-05T10:35:00Z,26.0630,-83.0730,69.77,1111122 
COMPS,ioos:station:USF.COMPS:C13:1,2016-07-05T11:05:00Z,26.0630,-83.0730,69.56,1111122 
COMPS,ioos:station:USF.COMPS:C13:1,2016-07-05T11:35:00Z,26.0630,-83.0730,68.62,1111122 
COMPS,ioos:station:USF.COMPS:C13:1,2016-07-05T12:05:00Z,26.0630,-83.0730,69.9,1111122 
COMPS,ioos:station:USF.COMPS:C13:1,2016-07-05T12:35:00Z,26.0630,-83.0730,71.92,1111122 
COMPS,ioos:station:USF.COMPS:C13:1,2016-07-05T15:05:00Z,26.0630,-83.0730,70.63,1111122 
COMPS,ioos:station:USF.COMPS:C13:1,2016-07-05T15:35:00Z,26.0630,-83.0730,71.63,1111122 
COMPS,ioos:station:USF.COMPS:C13:1,2016-07-05T16:05:00Z,26.0630,-83.0730,74.13,1111122 
COMPS,ioos:station:USF.COMPS:C13:1,2016-07-05T16:35:00Z,26.0630,-83.0730,74.11,1111122 
COMPS,ioos:station:USF.COMPS:C13:1,2016-07-05T17:05:00Z,26.0630,-83.0730,73.77,1111122 
COMPS,ioos:station:USF.COMPS:C13:1,2016-07-05T17:35:00Z,26.0630,-83.0730,73.71,1111122 
COMPS,ioos:station:USF.COMPS:C13:1,2016-07-05T18:05:00Z,26.0630,-83.0730,74.28,1111122 
COMPS,ioos:station:USF.COMPS:C13:1,2016-07-05T18:35:00Z,26.0630,-83.0730,73.88,1111122 
COMPS,ioos:station:USF.COMPS:C13:1,2016-07-05T19:05:00Z,26.0630,-83.0730,72.98,1111122 
COMPS,ioos:station:USF.COMPS:C13:1,2016-07-05T19:35:00Z,26.0630,-83.0730,72.55,1111122 
COMPS,ioos:station:USF.COMPS:C13:1,2016-07-05T20:05:00Z,26.0630,-83.0730,72.82,1111122 
COMPS,ioos:station:USF.COMPS:C13:1,2016-07-05T20:35:00Z,26.0630,-83.0730,73.26,1111122 
COMPS,ioos:station:USF.COMPS:C13:1,2016-07-05T21:05:00Z,26.0630,-83.0730,71.97,1111122 
COMPS,ioos:station:USF.COMPS:C13:1,2016-07-05T21:35:00Z,26.0630,-83.0730,70.6,1111122 
COMPS,ioos:station:USF.COMPS:C13:1,2016-07-05T22:05:00Z,26.0630,-83.0730,71.89,1111122 
COMPS,ioos:station:USF.COMPS:C13:1,2016-07-05T22:35:00Z,26.0630,-83.0730,70.33,1111122 
COMPS,ioos:station:USF.COMPS:C13:1,2016-07-05T23:05:00Z,26.0630,-83.0730,66.86,1111122 
COMPS,ioos:station:USF.COMPS:C13:1,2016-07-05T23:35:00Z,26.0630,-83.0730,67.54,1111122 
COMPS,ioos:station:USF.COMPS:C13:1,2016-07-06T00:05:00Z,26.0630,-83.0730,67.44,1111122 
COMPS,ioos:station:USF.COMPS:C13:1,2016-07-06T00:35:00Z,26.0630,-83.0730,68.87,1111122 
COMPS,ioos:station:USF.COMPS:C13:1,2016-07-06T01:05:00Z,26.0630,-83.0730,72.48,1111122 
COMPS,ioos:station:USF.COMPS:C13:1,2016-07-06T01:35:00Z,26.0630,-83.0730,72.22,1111122 
COMPS,ioos:station:USF.COMPS:C13:1,2016-07-06T02:05:00Z,26.0630,-83.0730,73.19,1111122 
COMPS,ioos:station:USF.COMPS:C13:1,2016-07-06T02:35:00Z,26.0630,-83.0730,72.38,1111122 
COMPS,ioos:station:USF.COMPS:C13:1,2016-07-06T03:05:00Z,26.0630,-83.0730,73.13,1111122 
COMPS,ioos:station:USF.COMPS:C13:1,2016-07-06T03:35:00Z,26.0630,-83.0730,75.42,1111122 
COMPS,ioos:station:USF.COMPS:C13:1,2016-07-06T04:05:00Z,26.0630,-83.0730,77.18,1111122 
COMPS,ioos:station:USF.COMPS:C13:1,2016-07-06T04:35:00Z,26.0630,-83.0730,77.31,1111122 
COMPS,ioos:station:USF.COMPS:C13:1,2016-07-06T05:05:00Z,26.0630,-83.0730,77.95,1111122 
COMPS,ioos:station:USF.COMPS:C13:1,2016-07-06T05:35:00Z,26.0630,-83.0730,76.05,1111122 
COMPS,ioos:station:USF.COMPS:C13:1,2016-07-06T06:05:00Z,26.0630,-83.0730,75.85,1111122 
COMPS,ioos:station:USF.COMPS:C13:1,2016-07-06T06:35:00Z,26.0630,-83.0730,76.26,1111122 
COMPS,ioos:station:USF.COMPS:C13:1,2016-07-06T08:05:00Z,26.0630,-83.0730,76.96,1111122 
COMPS,ioos:station:USF.COMPS:C13:1,2016-07-06T08:35:00Z,26.0630,-83.0730,78.31,1111122 
COMPS,ioos:station:USF.COMPS:C13:1,2016-07-06T09:05:00Z,26.0630,-83.0730,78.23,1111122 
COMPS,ioos:station:USF.COMPS:C13:1,2016-07-06T09:35:00Z,26.0630,-83.0730,76.77,1111122 
COMPS,ioos:station:USF.COMPS:C13:1,2016-07-06T10:05:00Z,26.0630,-83.0730,76.48,1111122 
COMPS,ioos:station:USF.COMPS:C13:1,2016-07-06T10:35:00Z,26.0630,-83.0730,77.82,1111122 
COMPS,ioos:station:USF.COMPS:C13:1,2016-07-06T11:05:00Z,26.0630,-83.0730,76.5,1111122 
COMPS,ioos:station:USF.COMPS:C13:1,2016-07-06T11:35:00Z,26.0630,-83.0730,75.07,1111122 
COMPS,ioos:station:USF.COMPS:C13:1,2016-07-06T12:05:00Z,26.0630,-83.0730,70.64,1111122 
COMPS,ioos:station:USF.COMPS:C13:1,2016-07-06T12:35:00Z,26.0630,-83.0730,69.53,1111122 
COMPS,ioos:station:USF.COMPS:C13:1,2016-07-06T13:05:00Z,26.0630,-83.0730,70.74,1111122 
COMPS,ioos:station:USF.COMPS:C13:1,2016-07-06T13:35:00Z,26.0630,-83.0730,70.98,1111122 
COMPS,ioos:station:USF.COMPS:C13:1,2016-07-06T14:05:00Z,26.0630,-83.0730,70.95,1111122 
COMPS,ioos:station:USF.COMPS:C13:1,2016-07-06T14:35:00Z,26.0630,-83.0730,71.18,1111122 
COMPS,ioos:station:USF.COMPS:C13:1,2016-07-06T15:05:00Z,26.0630,-83.0730,72.76,1111122 
COMPS,ioos:station:USF.COMPS:C13:1,2016-07-06T15:35:00Z,26.0630,-83.0730,72.6,1111122 
COMPS,ioos:station:USF.COMPS:C13:1,2016-07-06T16:05:00Z,26.0630,-83.0730,72.4,1111122 
COMPS,ioos:station:USF.COMPS:C13:1,2016-07-06T16:35:00Z,26.0630,-83.0730,70.96,1111122 
COMPS,ioos:station:USF.COMPS:C13:1,2016-07-06T17:05:00Z,26.0630,-83.0730,67.6,1111122 
COMPS,ioos:station:USF.COMPS:C13:1,2016-07-06T17:35:00Z,26.0630,-83.0730,69.72,1111122 
COMPS,ioos:station:USF.COMPS:C13:1,2016-07-06T18:05:00Z,26.0630,-83.0730,71.27,1111122 
COMPS,ioos:station:USF.COMPS:C13:1,2016-07-06T18:35:00Z,26.0630,-83.0730,78.64,1111122 
COMPS,ioos:station:USF.COMPS:C13:1,2016-07-06T19:05:00Z,26.0630,-83.0730,81.29,1111122 
COMPS,ioos:station:USF.COMPS:C13:1,2016-07-06T19:35:00Z,26.0630,-83.0730,77.53,1111122 
COMPS,ioos:station:USF.COMPS:C13:1,2016-07-06T20:05:00Z,26.0630,-83.0730,71.6,1111122 
COMPS,ioos:station:USF.COMPS:C13:1,2016-07-06T20:35:00Z,26.0630,-83.0730,65.56,1111122 
COMPS,ioos:station:USF.COMPS:C13:1,2016-07-06T21:05:00Z,26.0630,-83.0730,69.06,1111122 
COMPS,ioos:station:USF.COMPS:C13:1,2016-07-06T21:35:00Z,26.0630,-83.0730,65.3,1111122 
COMPS,ioos:station:USF.COMPS:C13:1,2016-07-06T22:05:00Z,26.0630,-83.0730,70.63,1111122 
COMPS,ioos:station:USF.COMPS:C13:1,2016-07-06T22:35:00Z,26.0630,-83.0730,66.21,1111122 
COMPS,ioos:station:USF.COMPS:C13:1,2016-07-06T23:05:00Z,26.0630,-83.0730,66.89,1111122 
COMPS,ioos:station:USF.COMPS:C13:1,2016-07-06T23:35:00Z,26.0630,-83.0730,70.51,1111122 
COMPS,ioos:station:USF.COMPS:C13:1,2016-07-07T00:05:00Z,26.0630,-83.0730,70.27,1111122 
COMPS,ioos:station:USF.COMPS:C13:1,2016-07-07T00:35:00Z,26.0630,-83.0730,70.34,1111122 
COMPS,ioos:station:USF.COMPS:C13:1,2016-07-07T01:05:00Z,26.0630,-83.0730,71.59,1111122 
COMPS,ioos:station:USF.COMPS:C13:1,2016-07-07T01:35:00Z,26.0630,-83.0730,72.51,1111122 